DLH8185 EDDM-EGLL

Flight info

Callsign DLH8185
Flight time N/A
Altitude 34000
Route GIVMI6E GIVMI Y101 INBED DCT REKDI DCT LOHRE DCT ADKUV DCT DENUT L608 LOGAN
Aircraft A320/M-SDE3FGHIRWY/LB1

Departure

Time 2026-04-30 12:40
Airport Munich Airport (EDDM)

Arrival

Time N/A
Airport London Heathrow Airport (EGLL)
Time Latitude Longitude Altitude Speed Heading
2026-04-30 11:57 48.35315 11.78319 1475 ft 0 kts 84°
2026-04-30 12:27 48.35315 11.78318 1475 ft 0 kts 84°
2026-04-30 12:28 48.35314 11.78300 1474 ft 2 kts 83°
2026-04-30 12:28 48.35312 11.78278 1473 ft 2 kts 84°
2026-04-30 12:28 48.35311 11.78258 1473 ft 0 kts 85°
2026-04-30 12:29 48.35311 11.78255 1473 ft 0 kts 85°
2026-04-30 12:29 48.35311 11.78256 1473 ft 0 kts 85°
2026-04-30 12:29 48.35311 11.78255 1473 ft 0 kts 85°
2026-04-30 12:30 48.35310 11.78243 1472 ft 2 kts 85°
2026-04-30 12:30 48.35308 11.78207 1471 ft 2 kts 83°
2026-04-30 12:31 48.35290 11.78174 1469 ft 2 kts 17°
2026-04-30 12:31 48.35273 11.78173 1469 ft 1 kts 354°
2026-04-30 12:31 48.35272 11.78173 1469 ft 0 kts 354°
2026-04-30 12:33 48.35273 11.78172 1469 ft 0 kts 354°
2026-04-30 12:33 48.35291 11.78170 1469 ft 4 kts 355°
2026-04-30 12:34 48.35333 11.78165 1469 ft 7 kts 356°
2026-04-30 12:34 48.35378 11.78155 1469 ft 1 kts 313°
2026-04-30 12:34 48.35360 11.78097 1468 ft 8 kts 244°
2026-04-30 12:34 48.35347 11.77993 1469 ft 11 kts 259°
2026-04-30 12:35 48.35334 11.77861 1469 ft 11 kts 264°
2026-04-30 12:35 48.35383 11.77775 1468 ft 14 kts 352°
2026-04-30 12:35 48.35493 11.77759 1466 ft 17 kts 353°
2026-04-30 12:35 48.35591 11.77745 1464 ft 11 kts 350°
2026-04-30 12:36 48.35676 11.77727 1462 ft 13 kts 353°
2026-04-30 12:36 48.35774 11.77709 1460 ft 15 kts 354°
2026-04-30 12:36 48.35875 11.77692 1459 ft 12 kts 353°
2026-04-30 12:36 48.35908 11.77686 1459 ft 3 kts 354°
2026-04-30 12:37 48.35939 11.77679 1459 ft 4 kts 341°
2026-04-30 12:37 48.35961 11.77629 1460 ft 6 kts 278°
2026-04-30 12:37 48.35957 11.77533 1462 ft 12 kts 264°
2026-04-30 12:37 48.35946 11.77385 1465 ft 13 kts 263°
2026-04-30 12:38 48.35935 11.77246 1467 ft 12 kts 261°
2026-04-30 12:38 48.35926 11.77121 1469 ft 11 kts 275°
2026-04-30 12:38 48.35965 11.77020 1469 ft 9 kts 308°
2026-04-30 12:38 48.36026 11.76976 1469 ft 10 kts 353°
2026-04-30 12:39 48.36103 11.76962 1469 ft 11 kts 353°
2026-04-30 12:39 48.36193 11.76946 1469 ft 14 kts 353°
2026-04-30 12:39 48.36277 11.76963 1467 ft 11 kts 48°
2026-04-30 12:39 48.36315 11.77244 1465 ft 59 kts 83°
2026-04-30 12:40 48.36388 11.78214 1459 ft 124 kts 84°
2026-04-30 12:40 48.36509 11.79734 1606 ft 160 kts 83°
2026-04-30 12:40 48.36636 11.81420 2102 ft 170 kts 81°
2026-04-30 12:40 48.36774 11.83111 3014 ft 160 kts 83°
2026-04-30 12:41 48.36901 11.84707 3746 ft 159 kts 78°
2026-04-30 12:41 48.37460 11.86236 4121 ft 180 kts 45°
2026-04-30 12:41 48.38657 11.87065 4501 ft 207 kts 11°
2026-04-30 12:41 48.40157 11.86906 4892 ft 230 kts 358°
2026-04-30 12:42 48.41790 11.86260 5311 ft 258 kts 335°
2026-04-30 12:42 48.43189 11.84434 5814 ft 280 kts 314°
2026-04-30 12:42 48.44457 11.82138 6602 ft 286 kts 313°
2026-04-30 12:42 48.45704 11.79863 7462 ft 288 kts 313°
2026-04-30 12:43 48.46998 11.77527 8323 ft 290 kts 313°
2026-04-30 12:43 48.48298 11.75208 9166 ft 292 kts 314°
2026-04-30 12:43 48.49604 11.72893 9989 ft 294 kts 314°
2026-04-30 12:43 48.50913 11.70575 10776 ft 296 kts 314°
2026-04-30 12:44 48.52259 11.68196 11535 ft 299 kts 315°
2026-04-30 12:44 48.53605 11.65816 12274 ft 303 kts 315°
2026-04-30 12:44 48.54984 11.63381 13005 ft 306 kts 315°
2026-04-30 12:44 48.56383 11.60908 13733 ft 309 kts 315°
2026-04-30 12:45 48.57776 11.58447 14399 ft 314 kts 315°
2026-04-30 12:45 48.59246 11.55852 14760 ft 330 kts 316°
2026-04-30 12:45 48.60764 11.53171 15123 ft 344 kts 315°
2026-04-30 12:45 48.62324 11.50401 15722 ft 349 kts 315°
2026-04-30 12:46 48.63922 11.47550 16420 ft 352 kts 315°
2026-04-30 12:46 48.65503 11.44730 17081 ft 355 kts 316°
2026-04-30 12:46 48.67097 11.41887 17712 ft 358 kts 316°
2026-04-30 12:46 48.68708 11.39052 18331 ft 360 kts 319°
2026-04-30 12:47 48.70504 11.36402 18936 ft 359 kts 325°
2026-04-30 12:47 48.72473 11.34089 19280 ft 358 kts 330°
2026-04-30 12:47 48.74515 11.31994 19552 ft 361 kts 332°
2026-04-30 12:47 48.76635 11.29874 20165 ft 363 kts 332°
2026-04-30 12:48 48.78705 11.27795 20832 ft 362 kts 332°
2026-04-30 12:48 48.80798 11.25682 21530 ft 362 kts 332°
2026-04-30 12:48 48.82922 11.23612 22136 ft 361 kts 336°
2026-04-30 12:48 48.85151 11.21850 22687 ft 360 kts 341°
2026-04-30 12:49 48.87473 11.20431 23187 ft 360 kts 346°
2026-04-30 12:49 48.89862 11.19198 23748 ft 362 kts 347°
2026-04-30 12:49 48.92223 11.18009 24294 ft 364 kts 348°
2026-04-30 12:49 48.94622 11.16801 24836 ft 366 kts 348°
2026-04-30 12:50 48.97070 11.15565 25364 ft 368 kts 348°
2026-04-30 12:50 48.99491 11.14340 25837 ft 371 kts 348°
2026-04-30 12:50 49.01936 11.13096 26290 ft 374 kts 348°
2026-04-30 12:50 49.04406 11.11837 26740 ft 377 kts 348°
2026-04-30 12:51 49.06922 11.10552 27177 ft 380 kts 348°
2026-04-30 12:51 49.09403 11.09283 27626 ft 382 kts 348°
2026-04-30 12:51 49.11935 11.07991 28086 ft 384 kts 348°
2026-04-30 12:51 49.14463 11.06700 28527 ft 386 kts 348°
2026-04-30 12:52 49.17004 11.05402 28943 ft 387 kts 348°
2026-04-30 12:52 49.19577 11.04087 29325 ft 390 kts 348°
2026-04-30 12:52 49.22142 11.02769 29690 ft 392 kts 348°
2026-04-30 12:52 49.24722 11.01442 30025 ft 394 kts 348°
2026-04-30 12:53 49.27312 11.00105 30346 ft 397 kts 348°
2026-04-30 12:53 49.29946 10.98745 30677 ft 398 kts 348°
2026-04-30 12:53 49.32566 10.97331 30981 ft 403 kts 345°
2026-04-30 12:53 49.35113 10.95549 31264 ft 410 kts 339°
2026-04-30 12:54 49.37588 10.93320 31561 ft 416 kts 333°
2026-04-30 12:54 49.39910 10.90695 31923 ft 421 kts 327°
2026-04-30 12:54 49.42073 10.87656 32462 ft 422 kts 321°
2026-04-30 12:54 49.44013 10.84314 33122 ft 418 kts 317°
2026-04-30 12:55 49.45840 10.80875 33621 ft 415 kts 316°
2026-04-30 12:55 49.47631 10.77454 33885 ft 416 kts 316°
2026-04-30 12:55 49.49439 10.73997 34108 ft 418 kts 316°
2026-04-30 12:55 49.51276 10.70491 34316 ft 420 kts 316°
2026-04-30 12:56 49.54936 10.63504 34354 ft 420 kts 316°
2026-04-30 12:56 49.58569 10.56560 34356 ft 420 kts 316°
2026-04-30 12:57 49.62228 10.49540 34356 ft 421 kts 316°
2026-04-30 12:57 49.65834 10.42464 34357 ft 422 kts 313°
2026-04-30 12:58 49.69189 10.34988 34353 ft 424 kts 310°
2026-04-30 12:58 49.72515 10.27432 34349 ft 425 kts 310°
2026-04-30 12:59 49.75807 10.19938 34357 ft 424 kts 310°
2026-04-30 12:59 49.79116 10.12393 34361 ft 425 kts 310°
2026-04-30 13:00 49.82434 10.04810 34360 ft 425 kts 310°
2026-04-30 13:00 49.85735 9.97239 34361 ft 424 kts 310°
2026-04-30 13:01 49.89010 9.89709 34359 ft 424 kts 310°
2026-04-30 13:01 49.92247 9.82052 34347 ft 429 kts 304°
2026-04-30 13:02 49.94560 9.73420 34360 ft 436 kts 296°
2026-04-30 13:02 49.96661 9.64611 34359 ft 436 kts 296°
2026-04-30 13:03 49.98775 9.55821 34354 ft 436 kts 296°
2026-04-30 13:03 50.00903 9.47008 34352 ft 436 kts 296°
2026-04-30 13:04 50.03016 9.38243 34356 ft 435 kts 296°
2026-04-30 13:04 50.05129 9.29469 34354 ft 436 kts 295°
2026-04-30 13:05 50.07255 9.20592 34359 ft 436 kts 295°
2026-04-30 13:06 50.10413 9.07355 34349 ft 436 kts 295°
2026-04-30 13:06 50.12499 8.98558 34352 ft 436 kts 295°
2026-04-30 13:07 50.14604 8.89640 34360 ft 437 kts 295°
2026-04-30 13:07 50.16693 8.80770 34366 ft 438 kts 294°
2026-04-30 13:08 50.18781 8.71855 34373 ft 437 kts 295°
2026-04-30 13:08 50.20848 8.63001 34372 ft 438 kts 294°
2026-04-30 13:09 50.22934 8.54031 34379 ft 438 kts 294°
2026-04-30 13:09 50.25001 8.45100 34372 ft 439 kts 294°
2026-04-30 13:10 50.27065 8.36139 34367 ft 439 kts 294°
2026-04-30 13:10 50.29108 8.27242 34360 ft 440 kts 294°
2026-04-30 13:11 50.31169 8.18227 34356 ft 440 kts 293°
2026-04-30 13:11 50.33225 8.09192 34355 ft 441 kts 293°
2026-04-30 13:12 50.35278 8.00133 34351 ft 441 kts 293°
2026-04-30 13:12 50.37311 7.91121 34352 ft 441 kts 293°
2026-04-30 13:13 50.40370 7.77488 34351 ft 441 kts 293°
2026-04-30 13:14 50.43399 7.63904 34348 ft 440 kts 293°
2026-04-30 13:14 50.46410 7.50314 34337 ft 441 kts 292°
2026-04-30 13:15 50.49416 7.36651 34336 ft 442 kts 292°
2026-04-30 13:16 50.51405 7.27565 34334 ft 442 kts 291°
2026-04-30 13:16 50.53400 7.18409 34334 ft 442 kts 291°
2026-04-30 13:17 50.56382 7.04643 34332 ft 442 kts 291°
2026-04-30 13:18 50.59320 6.90988 34330 ft 442 kts 291°
2026-04-30 13:18 50.62263 6.77240 34331 ft 443 kts 291°
2026-04-30 13:19 50.64218 6.68033 34330 ft 443 kts 291°
2026-04-30 13:19 50.66159 6.58861 34326 ft 443 kts 291°
2026-04-30 13:20 50.68087 6.49710 34327 ft 443 kts 291°
2026-04-30 13:20 50.70025 6.40477 34325 ft 442 kts 291°
2026-04-30 13:21 50.71945 6.31276 34329 ft 442 kts 290°
2026-04-30 13:22 50.74795 6.17540 34325 ft 442 kts 290°
2026-04-30 13:22 50.77642 6.03728 34326 ft 442 kts 290°
2026-04-30 13:23 50.80476 5.89889 34329 ft 442 kts 290°
2026-04-30 13:24 50.84239 5.71356 34321 ft 443 kts 289°
2026-04-30 13:25 50.87965 5.52834 34316 ft 444 kts 289°
2026-04-30 13:26 50.92601 5.29529 34298 ft 443 kts 288°
2026-04-30 13:28 50.97183 5.06227 34292 ft 444 kts 288°
2026-04-30 13:28 50.99904 4.92260 34299 ft 443 kts 288°
2026-04-30 13:29 51.03508 4.73573 34298 ft 444 kts 288°
2026-04-30 13:31 51.07974 4.50185 34297 ft 443 kts 288°
2026-04-30 13:32 51.12383 4.26799 34288 ft 443 kts 287°
2026-04-30 13:33 51.15885 4.08003 34278 ft 442 kts 287°
2026-04-30 13:34 51.18486 3.93925 34274 ft 443 kts 287°
2026-04-30 13:35 51.21927 3.75124 34270 ft 443 kts 287°
2026-04-30 13:36 51.26779 3.57135 34269 ft 443 kts 301°
2026-04-30 13:36 51.31509 3.44460 34268 ft 444 kts 302°
2026-04-30 13:37 51.35788 3.31443 34273 ft 444 kts 292°
2026-04-30 13:38 51.39066 3.17633 34270 ft 444 kts 290°
2026-04-30 13:39 51.43413 2.99154 34272 ft 445 kts 290°
2026-04-30 13:40 51.46666 2.85254 34268 ft 445 kts 290°
2026-04-30 13:40 51.48825 2.75967 34273 ft 445 kts 290°
2026-04-30 13:41 51.50966 2.66714 34042 ft 445 kts 290°
2026-04-30 13:41 51.52031 2.62097 33768 ft 443 kts 290°
2026-04-30 13:41 51.53097 2.57468 33491 ft 440 kts 290°
2026-04-30 13:41 51.54147 2.52896 33216 ft 438 kts 290°
2026-04-30 13:42 51.55191 2.48340 32942 ft 437 kts 290°
2026-04-30 13:42 51.56235 2.43777 32669 ft 436 kts 290°
2026-04-30 13:42 51.58297 2.34730 32126 ft 437 kts 289°
2026-04-30 13:43 51.59357 2.30090 31816 ft 438 kts 289°
2026-04-30 13:43 51.60404 2.25489 31433 ft 438 kts 289°
2026-04-30 13:43 51.61453 2.20866 30950 ft 439 kts 289°
2026-04-30 13:43 51.62501 2.16236 30367 ft 440 kts 289°
2026-04-30 13:44 51.63540 2.11632 29749 ft 440 kts 289°
2026-04-30 13:44 51.64571 2.07056 29132 ft 440 kts 289°
2026-04-30 13:44 51.65604 2.02457 28705 ft 436 kts 289°
2026-04-30 13:44 51.66621 1.97924 28285 ft 431 kts 289°
2026-04-30 13:45 51.68634 1.88904 27352 ft 425 kts 289°
2026-04-30 13:45 51.69630 1.84424 26899 ft 422 kts 289°
2026-04-30 13:45 51.70607 1.80024 26454 ft 419 kts 289°
2026-04-30 13:46 51.71586 1.75597 26012 ft 416 kts 289°
2026-04-30 13:46 51.72538 1.71279 25567 ft 414 kts 289°
2026-04-30 13:46 51.73502 1.66913 25360 ft 403 kts 289°
2026-04-30 13:46 51.74305 1.62684 25251 ft 389 kts 280°
2026-04-30 13:47 51.74584 1.58451 25243 ft 373 kts 268°
2026-04-30 13:47 51.74426 1.54393 25184 ft 358 kts 262°
2026-04-30 13:47 51.74157 1.50446 24799 ft 355 kts 261°
2026-04-30 13:47 51.73875 1.46536 24490 ft 351 kts 261°
2026-04-30 13:48 51.73601 1.42650 24181 ft 346 kts 261°
2026-04-30 13:48 51.73342 1.38871 23882 ft 341 kts 262°
2026-04-30 13:48 51.73205 1.36841 23720 ft 339 kts 262°
2026-04-30 13:49 51.73000 1.33787 23473 ft 335 kts 261°
2026-04-30 13:49 51.72758 1.30121 23141 ft 332 kts 261°
2026-04-30 13:49 51.72512 1.26423 22785 ft 330 kts 261°
2026-04-30 13:49 51.72268 1.22762 22438 ft 327 kts 261°
2026-04-30 13:50 51.72026 1.19140 22089 ft 324 kts 261°
2026-04-30 13:50 51.71545 1.11970 21385 ft 320 kts 261°
2026-04-30 13:50 51.71305 1.08432 21028 ft 318 kts 261°
2026-04-30 13:51 51.71066 1.04924 20666 ft 316 kts 261°
2026-04-30 13:51 51.70826 1.01415 20313 ft 314 kts 261°
2026-04-30 13:51 51.70588 0.97966 19973 ft 312 kts 261°
2026-04-30 13:51 51.70352 0.94508 19635 ft 309 kts 261°
2026-04-30 13:52 51.70113 0.91063 19078 ft 316 kts 261°
2026-04-30 13:52 51.69864 0.87506 18348 ft 327 kts 261°
2026-04-30 13:52 51.69606 0.83832 17668 ft 335 kts 261°
2026-04-30 13:52 51.69346 0.80108 17221 ft 335 kts 261°
2026-04-30 13:53 51.69087 0.76411 16826 ft 333 kts 261°
2026-04-30 13:53 51.68827 0.72736 16450 ft 331 kts 261°
2026-04-30 13:53 51.68568 0.69079 16040 ft 330 kts 261°
2026-04-30 13:53 51.68392 0.66609 15764 ft 330 kts 261°
2026-04-30 13:54 51.68043 0.61741 15249 ft 328 kts 261°
2026-04-30 13:54 51.67782 0.58127 14857 ft 327 kts 261°
2026-04-30 13:54 51.67522 0.54531 14474 ft 325 kts 261°
2026-04-30 13:54 51.67259 0.50907 14089 ft 324 kts 261°
2026-04-30 13:55 51.66997 0.47322 13713 ft 323 kts 261°
2026-04-30 13:55 51.66737 0.43749 13335 ft 322 kts 261°
2026-04-30 13:55 51.66477 0.40196 12973 ft 320 kts 261°
2026-04-30 13:55 51.66215 0.36649 12599 ft 318 kts 261°
2026-04-30 13:56 51.65956 0.33137 12238 ft 317 kts 260°
2026-04-30 13:56 51.65691 0.29603 11862 ft 315 kts 260°
2026-04-30 13:56 51.65429 0.26110 11462 ft 313 kts 260°
2026-04-30 13:56 51.65169 0.22676 11108 ft 310 kts 260°
2026-04-30 13:57 51.64911 0.19240 10859 ft 304 kts 259°
2026-04-30 13:57 51.64658 0.15901 10636 ft 298 kts 259°
2026-04-30 13:57 51.64439 0.12610 10359 ft 293 kts 261°
2026-04-30 13:57 51.64265 0.09407 10100 ft 289 kts 262°
2026-04-30 13:58 51.64099 0.06199 9844 ft 285 kts 262°
2026-04-30 13:58 51.63765 -0.00038 9352 ft 275 kts 261°
2026-04-30 13:58 51.63596 -0.03094 9096 ft 271 kts 261°
2026-04-30 13:59 51.63432 -0.06049 8828 ft 268 kts 261°
2026-04-30 13:59 51.63266 -0.08984 8525 ft 267 kts 261°
2026-04-30 13:59 51.63097 -0.11942 8231 ft 265 kts 261°
2026-04-30 13:59 51.62928 -0.14898 7916 ft 265 kts 261°
2026-04-30 14:00 51.62760 -0.17834 7603 ft 264 kts 260°
2026-04-30 14:00 51.62425 -0.23651 7282 ft 261 kts 261°
2026-04-30 14:00 51.62254 -0.26578 7234 ft 261 kts 261°
2026-04-30 14:01 51.62182 -0.27814 7226 ft 261 kts 261°
2026-04-30 14:01 51.62035 -0.30332 7215 ft 261 kts 261°
2026-04-30 14:01 51.61863 -0.33276 7211 ft 261 kts 261°
2026-04-30 14:01 51.61692 -0.36185 7211 ft 261 kts 261°
2026-04-30 14:02 51.61520 -0.39095 7208 ft 261 kts 261°
2026-04-30 14:02 51.61348 -0.41991 7207 ft 261 kts 261°
2026-04-30 14:02 51.61176 -0.44890 7205 ft 261 kts 261°
2026-04-30 14:02 51.61002 -0.47796 7203 ft 261 kts 261°
2026-04-30 14:03 51.60829 -0.50694 7202 ft 261 kts 261°
2026-04-30 14:03 51.60653 -0.53615 7200 ft 261 kts 260°
2026-04-30 14:03 51.60476 -0.56517 7199 ft 261 kts 261°
2026-04-30 14:03 51.60300 -0.59403 7198 ft 261 kts 261°
2026-04-30 14:04 51.60121 -0.62334 7197 ft 261 kts 261°
2026-04-30 14:04 51.59945 -0.65217 7198 ft 261 kts 260°
2026-04-30 14:04 51.59761 -0.68163 7210 ft 273 kts 260°
2026-04-30 14:04 51.59563 -0.71215 7345 ft 272 kts 259°
2026-04-30 14:05 51.59376 -0.74202 7214 ft 265 kts 260°
2026-04-30 14:05 51.59079 -0.77068 6957 ft 256 kts 242°
2026-04-30 14:05 51.58075 -0.79277 6683 ft 236 kts 210°
2026-04-30 14:05 51.56652 -0.80245 6241 ft 217 kts 179°
2026-04-30 14:06 51.55184 -0.80111 5808 ft 208 kts 168°
2026-04-30 14:06 51.52368 -0.79596 5048 ft 200 kts 170°
2026-04-30 14:07 51.49892 -0.78727 4464 ft 175 kts 149°
2026-04-30 14:07 51.48747 -0.78071 4098 ft 171 kts 157°
2026-04-30 14:07 51.47854 -0.77002 3682 ft 161 kts 120°